{"data":{"norad_id":59088,"epoch":"2026-09-20T08:23:04.109568Z","epoch_age_seconds":171821,"freshness":"FRESH","line1":"1 59088U 24041Q   26263.34935312  .00000094  00000+0  12946-4 0  9998","line2":"2 59088  43.0028 291.2454 0001378 262.2786  97.7909 15.27577149144040","mean_motion":15.27577149,"eccentricity":0.0001378,"inclination_deg":43.0028,"raan_deg":291.2454,"arg_perigee_deg":262.2786,"mean_anomaly_deg":97.7909,"bstar":1.2946e-5,"rev_number":14404,"period_min":94.266924648792,"perigee_km":482.11216035215,"apogee_km":484.003105593,"semimajor_km":6861.1946329726,"source":"CELESTRAK","updated_at":"2026-09-21T09:00:34.036291Z"}}